This is the latest recevied weather packets stored in our database for station/object KO5MO-11. If no packets are shown the sender has not sent any weather packets the latest 10 day(s).
| Time | Temp. | Humidity | Pressure | Rain* | Wind** | Luminosity | Snow |
|---|---|---|---|---|---|---|---|
| 1777133501 | 30.56° C | 25% | 1007.7 hPa | - | - | - | - |
| 1777133201 | 31.11° C | 24% | 1007.8 hPa | - | - | - | - |
| 1777132901 | 31.11° C | 24% | 1007.7 hPa | - | - | - | - |
| 1777132601 | 31.11° C | 25% | 1007.6 hPa | - | - | - | - |
| 1777132301 | 31.11° C | 25% | 1007.6 hPa | - | - | - | - |
| 1777132001 | 31.11° C | 25% | 1007.6 hPa | - | - | - | - |
| 1777131701 | 31.11° C | 24% | 1007.6 hPa | - | - | - | - |
| 1777131401 | 31.11° C | 24% | 1007.6 hPa | - | - | - | - |
| 1777131101 | 31.11° C | 25% | 1007.5 hPa | - | - | - | - |
| 1777130801 | 31.11° C | 24% | 1007.5 hPa | - | - | - | - |
| 1777130501 | 31.11° C | 24% | 1007.4 hPa | - | - | - | - |
| 1777130201 | 31.11° C | 24% | 1007.5 hPa | - | - | - | - |
| 1777129901 | 31.11° C | 25% | 1007.6 hPa | - | - | - | - |
| 1777129601 | 31.67° C | 25% | 1007.6 hPa | - | - | - | - |
| 1777129301 | 30.56° C | 25% | 1007.5 hPa | - | - | - | - |
| 1777129001 | 31.11° C | 24% | 1007.7 hPa | - | - | - | - |
| 1777128701 | 31.11° C | 24% | 1007.7 hPa | - | - | - | - |
| 1777128401 | 31.11° C | 24% | 1007.5 hPa | - | - | - | - |
| 1777128101 | 30.56° C | 25% | 1007.6 hPa | - | - | - | - |
| 1777127801 | 31.11° C | 25% | 1007.7 hPa | - | - | - | - |
| 1777127501 | 31.67° C | 24% | 1007.6 hPa | - | - | - | - |
| 1777127201 | 31.11° C | 25% | 1007.6 hPa | - | - | - | - |
| 1777126901 | 31.11° C | 25% | 1007.6 hPa | - | - | - | - |
| 1777126601 | 31.11° C | 25% | 1007.6 hPa | - | - | - | - |
| 1777126301 | 31.11° C | 25% | 1007.6 hPa | - | - | - | - |
* Rain since midnight (hover to see other rain measurements)
** Current wind speed in m/s (hover to see current wind gust speed)